Dewpoint
48 49 52 52 51 49 49 53 55 56 57 57 57 57 58 59 59 53 55 58 60 62 61 55 54 50 51 49 48 41 36 38 40 35 35 39 37 42 45 52 50 53 56 57 58
47 49 49 51 52 52 49 49 53 54 56 57 55 57 58 59 55 52 58 59 60 60 54 52 52 51 49 48 46 38 36 37 40 40 40 40 41 44 46 49 52 55 58 58 59
49 49 48 48 51 52 53 51 50 53 55 56 56 57 58 58 51 50 59 59 61 58 55 54 52 52 49 47 44 38 35 39 39 42 42 41 43 44 45 45 52 54 57 58 58
47 49 49 47 48 51 52 53 51 51 54 57 56 57 57 56 44 53 58 60 60 56 53 52 52 50 49 47 42 38 36 39 41 42 42 41 44 43 42 44 49 57 58 58 57
46 48 49 49 47 48 51 52 53 51 53 56 56 56 56 49 49 55 58 60 55 54 52 51 51 50 48 48 42 38 37 39 39 40 41 43 43 43 43 49 57 58 58 58 57
47 49 48 49 47 46 48 51 53 51 51 54 55 56 52 43 53 56 56 55 55 54 53 52 51 51 49 46 46 44 40 39 39 41 41 42 43 43 45 56 57 57 57 58 58
48 49 49 49 48 46 46 49 51 53 51 53 55 52 49 45 54 57 56 54 55 54 53 54 53 51 48 46 45 42 37 37 40 37 41 42 44 42 48 57 57 57 57 58 58
49 49 50 49 49 47 47 48 51 53 51 52 54 51 45 53 55 55 55 53 54 55 55 55 55 51 49 49 45 38 36 40 34 36 38 42 40 43 50 56 56 56 56 57 58
50 50 50 49 49 49 48 49 52 51 52 54 50 50 40 56 53 54 54 50 53 52 55 55 51 49 49 46 44 42 40 36 35 37 34 41 40 42 48 54 55 54 55 57 57
50 50 50 49 49 49 49 51 49 49 50 51 50 45 45 44 52 53 55 53 49 50 49 51 48 46 46 44 39 39 39 35 37 36 34 36 39 35 38 50 53 53 55 56 57
50 50 50 49 49 49 48 46 40 38 45 38 41 41 43 45 51 51 53 51 49 47 43 47 44 41 43 44 44 40 40 38 33 40 35 36 34 33 35 41 48 50 53 54 56
50 50 49 49 49 49 47 41 39 37 35 42 45 44 45 44 43 47 52 46 45 40 45 42 40 43 45 45 44 41 39 37 40 42 36 39 36 37 36 35 45 48 49 52 53
50 51 50 49 49 48 44 43 48 45 35 39 43 43 42 45 38 41 49 47 42 40 41 39 40 44 44 44 42 43 38 37 37 42 41 40 37 37 34 31 36 43 43 49 51
49 51 50 50 44 43 41 45 49 44 30 29 38 42 43 44 38 46 50 45 44 40 41 40 43 44 43 42 42 39 43 41 40 37 36 42 35 40 37 35 31 34 26 38 38
50 50 50 46 42 40 46 49 48 40 14 28 38 48 44 40 39 43 49 45 41 41 42 39 42 43 42 41 42 40 43 41 41 38 37 38 35 38 36 36 30 22 25 28 31
50 50 50 46 46 47 48 47 44 25 10 32 39 38 39 40 38 44 45 45 43 41 39 36 38 42 42 42 42 41 39 38 37 37 31 36 36 37 39 38 41 27 29 30 32
51 49 46 46 43 48 47 42 28 10 25 31 34 37 35 36 37 40 39 38 36 33 33 37 37 36 44 41 42 40 38 29 28 29 30 34 35 37 33 44 43 40 37 37 35
46 43 42 42 44 48 44 31 20 13 17 34 33 35 33 36 36 37 36 34 35 35 34 33 30 36 41 39 38 38 35 30 23 24 25 28 31 32 28 25 45 47 44 44 40
45 40 40 41 44 46 36 23 22 21 30 30 33 31 32 35 35 36 35 35 36 36 30 30 32 37 37 39 39 37 35 31 22 18 22 27 28 23 24 25 36 34 36 39 38
39 37 37 41 43 36 26 24 25 34 33 33 27 30 28 32 32 33 34 36 35 36 35 34 30 36 37 39 39 36 34 30 29 21 18 18 13 14 22 24 28 29 30 32 32
36 30 36 40 35 30 18 25 31 35 35 33 28 29 30 32 32 32 31 34 35 37 37 34 33 32 37 35 36 28 33 23 24 24 17 14 12 15 21 25 27 29 31 31 30
31 22 36 35 25 19 19 26 33 33 35 35 35 33 31 31 30 31 31 34 36 37 36 36 35 29 31 34 34 32 24 20 23 18 16 17 17 25 25 26 27 28 30 30 29
29 29 33 31 16 22 22 29 32 30 29 33 33 34 34 31 27 30 32 36 38 38 35 35 32 26 28 31 30 30 26 22 22 22 20 20 17 24 25 26 29 29 28 28 28
27 20 25 29 26 22 15 22 25 29 26 28 32 34 31 30 32 30 32 34 37 38 40 37 27 24 23 23 28 27 26 23 21 22 19 13 19 22 25 28 29 27 27 26 27
24 18 17 16 19 22 25 24 22 21 26 27 27 27 28 26 27 28 32 34 35 37 37 35 22 26 27 26 28 27 27 25 23 19 14 16 21 22 25 28 27 26 25 26 27
24 22 21 14 24 22 19 17 22 20 25 24 25 24 26 25 27 22 28 31 33 35 34 35 29 28 25 26 29 27 27 27 26 28 27 25 28 27 26 28 26 25 25 26 27
30 30 27 24 18 17 19 19 23 22 25 27 24 24 23 26 26 34 33 34 33 32 32 33 28 22 19 26 26 24 27 27 28 28 28 25 28 23 24 26 25 24 25 27 28
Lifted_Index
9 8 8 7 8 8 9 8 8 7 6 6 5 4 3 2 2 2 1 1 1 1 1 1 1 2 2 1 2 2 3 3 2 3 2 2 2 3 3 2 1 1 0 0 0
8 8 8 8 8 8 8 9 8 8 7 6 6 5 4 3 2 2 2 1 1 1 1 1 1 2 2 1 2 2 3 2 2 3 2 2 2 2 2 2 1 1 0 -0 -0
8 8 8 8 8 8 8 9 9 8 7 7 7 6 5 4 3 2 3 2 2 1 1 1 1 1 1 1 1 2 2 2 2 2 2 2 2 2 2 2 1 1 -0 -0 -1
8 8 8 8 8 8 8 8 9 9 8 7 7 7 6 5 4 3 4 3 2 2 1 1 1 1 1 1 1 1 2 3 3 3 2 2 2 2 2 2 1 1 -0 -1 -1
9 8 8 8 8 8 8 8 8 9 8 7 7 7 7 6 5 5 4 3 3 2 1 1 1 1 1 1 1 1 2 3 3 3 2 2 1 1 1 1 1 0 -0 -1 -1
8 8 8 8 8 9 8 8 8 8 8 8 7 7 7 7 6 5 5 4 3 2 2 1 1 1 1 1 1 1 2 2 2 2 2 2 1 1 1 0 -0 -1 -1 -1 -1
7 7 7 7 8 8 8 8 7 7 8 8 7 7 8 7 6 6 5 5 4 3 2 2 1 1 1 1 1 1 1 2 2 2 2 1 1 1 0 -0 -1 -1 -1 -1 -1
5 5 6 6 7 8 8 8 7 7 7 7 7 8 8 7 6 6 6 5 4 3 3 2 2 1 1 1 1 1 1 2 2 2 1 1 1 1 0 -1 -1 -1 -2 -2 -2
3 3 4 5 6 7 7 7 6 6 6 7 7 7 8 7 6 6 6 6 5 4 3 3 2 1 1 1 1 1 2 2 2 2 2 2 1 1 0 -0 -1 -2 -2 -2 -2
0 1 2 3 4 5 6 6 6 6 6 7 7 7 8 8 7 6 6 6 5 4 3 3 2 2 2 2 2 1 1 1 2 2 2 2 1 1 0 -0 -1 -2 -2 -2 -3
-1 -0 0 1 3 4 5 6 7 7 7 7 7 7 8 8 7 7 6 6 6 5 4 3 3 2 2 2 1 1 1 1 1 2 2 1 1 0 0 -0 -0 -1 -2 -3 -3
-1 -1 -1 -0 1 2 3 5 6 6 7 7 7 7 7 8 7 7 6 6 6 6 5 4 3 3 3 2 2 1 1 1 1 2 1 1 1 1 0 -0 -0 -1 -2 -2 -3
-1 -1 -1 -1 -0 0 1 3 4 5 6 7 6 6 7 7 7 7 7 6 6 6 5 5 4 4 3 3 2 1 1 1 1 1 1 1 1 1 1 0 -0 -0 -1 -2 -2
-1 -1 -1 -1 -1 -1 -0 1 2 3 5 6 6 6 6 7 7 7 6 6 6 6 6 5 5 4 3 3 2 2 2 2 1 1 1 1 1 1 1 1 0 0 -0 -1 -1
-1 -1 -1 -1 -1 -1 -1 -0 0 2 3 5 6 6 6 6 6 6 6 6 6 6 6 5 5 4 3 3 3 2 2 2 1 1 1 1 1 1 1 1 1 1 2 1 1
-1 -1 -1 -1 -1 -0 -0 -0 -0 1 2 4 4 5 5 6 6 5 5 6 6 6 5 5 4 4 3 3 3 2 2 1 1 1 1 1 2 2 2 2 3 3 4 4 5
-1 -1 -1 -0 -0 0 0 0 0 0 1 2 3 4 5 5 5 4 5 5 5 5 5 4 4 4 3 3 3 2 2 1 1 1 1 2 2 2 3 3 4 4 5 6 6
-0 -0 -0 0 0 1 1 1 1 1 1 1 2 3 3 4 4 4 4 4 4 4 3 3 3 3 3 3 3 2 2 1 1 1 1 2 2 3 4 5 5 4 5 5 6
1 1 1 1 1 1 1 1 1 1 1 1 1 2 2 2 3 3 4 4 3 2 2 2 2 2 2 2 2 2 2 2 1 1 1 1 2 3 5 6 6 5 5 6 6
1 1 1 1 1 1 2 1 1 1 1 1 1 1 1 2 2 3 3 3 2 2 2 2 1 1 1 2 2 2 2 2 1 1 1 1 2 3 4 5 6 6 7 7 8
2 2 2 2 2 2 2 2 2 2 2 1 1 1 1 1 2 2 2 2 2 2 2 1 1 1 1 2 2 2 2 2 1 1 1 1 2 4 5 5 5 6 7 8 8
2 2 2 2 2 2 2 2 2 2 2 2 2 1 1 1 1 2 2 2 2 2 2 1 1 1 1 1 2 2 1 2 1 1 1 1 3 6 7 7 6 6 7 8 8
2 2 3 3 3 2 2 2 2 2 2 2 2 1 1 1 1 2 1 2 2 2 2 2 1 1 0 1 1 1 1 1 1 1 1 2 3 6 8 7 7 7 8 8 8
3 3 3 3 2 2 2 2 2 2 2 2 2 1 1 1 1 1 1 1 2 2 2 2 2 1 1 1 1 1 1 1 1 1 2 2 4 6 7 7 7 7 7 6 6
3 3 3 3 2 2 2 2 2 3 3 2 2 2 1 1 1 1 1 1 1 2 2 2 1 1 1 1 1 1 1 2 2 2 2 3 5 5 6 5 5 5 5 5 5
4 3 3 3 2 2 2 3 3 4 4 3 3 2 2 1 1 2 2 2 2 2 2 1 1 1 1 1 1 1 2 2 3 3 3 4 5 5 5 4 4 4 4 4 5
4 3 3 3 3 2 3 3 3 4 5 4 3 2 2 2 2 3 3 2 2 2 2 2 1 1 1 1 1 1 2 3 3 3 3 4 5 5 4 4 4 4 4 4 5